Back to catalog

STARLINK-31316

AliveCommunicationsVLEO
NORAD 59090·PAYLOAD·🇺🇸 United States

Launched Feb 29, 2024 from Cape Canaveral Space Force Station

Loading…

Next Passes (next 24 hours)

TLE

FreshSource: CelesTrak SupGP

Epoch: Sep 14, 2026, 13:35 UTC

1 59090C 24041S   26257.56645833  .00041082  00000+0  14882-2 0  2572
2 59090  43.0008 277.2141 0001990 277.1442 286.2017 15.27552807    19

Track STARLINK-31316 in real time with AllMySat

Download on the App Store